Wind_Speed
69 73 77 81 85 86 85 82 75 65 54 49 47 46 45 44 43 42 40 39 37 35 32 30 28 26 25 25 24 24 24 22 21 18 19 20 21 22 21 19 22 24 23
75 79 82 84 85 82 73 60 49 43 42 42 41 39 37 36 35 35 34 35 36 35 33 30 27 25 26 27 26 24 24 20 17 17 13 12 14 15 15 18 21 16 21
78 80 79 76 68 56 46 43 41 37 35 33 32 33 35 35 34 33 33 34 34 33 31 29 27 25 25 21 18 17 18 19 17 17 14 14 15 14 16 16 15 17 17
73 70 64 53 44 40 38 35 30 27 27 29 31 31 30 27 25 25 26 25 23 24 22 20 19 18 16 16 18 16 14 14 14 17 19 16 19 19 19 17 15 13 13
61 55 48 40 34 28 23 20 20 21 23 23 22 22 22 20 21 23 21 18 17 16 15 13 13 14 14 15 17 16 15 14 13 14 19 19 16 16 18 19 17 12 12
34 28 24 21 18 16 17 17 19 21 21 21 23 24 25 24 23 22 21 20 17 14 13 12 12 13 12 14 16 14 14 12 12 12 13 9 11 17 20 20 18 15 13
24 21 19 18 17 18 22 24 26 26 26 26 27 27 27 27 26 23 21 20 18 15 14 13 11 10 12 14 11 7 8 12 11 12 12 10 9 14 18 17 13 13 13
17 17 20 21 23 26 28 27 26 26 27 28 28 28 27 27 26 24 22 20 18 15 15 13 11 11 9 9 2 4 6 11 13 13 14 15 16 18 17 17 18 17 15
15 19 23 25 26 27 28 29 29 29 29 28 28 28 28 27 26 26 25 22 19 16 13 11 11 8 6 2 3 5 9 10 12 17 17 16 17 17 15 18 22 17 14
17 21 24 26 28 30 32 33 34 34 33 31 30 28 26 25 23 23 23 21 18 16 13 10 9 5 7 4 3 3 5 2 5 21 21 19 18 16 16 23 25 20 16
19 22 25 28 30 33 35 37 39 38 36 34 32 29 26 23 21 20 19 18 17 16 13 10 7 4 7 7 6 2 6 8 11 18 20 19 17 15 19 24 26 21 20
20 23 26 29 32 35 38 40 38 34 31 31 29 26 24 22 20 18 15 13 14 15 14 12 7 5 6 7 6 6 10 13 14 16 19 18 16 18 20 21 23 24 24
21 25 29 32 35 37 40 40 36 30 29 29 27 25 23 22 21 20 15 10 8 11 14 16 13 8 6 8 7 12 14 18 17 14 14 15 16 18 19 20 21 24 24
23 26 30 33 37 40 41 39 33 29 29 29 29 29 26 24 23 23 21 15 9 7 10 17 18 13 8 10 13 15 18 20 18 17 16 16 17 19 20 21 21 22 20
22 26 30 35 39 41 41 39 32 29 30 31 31 27 25 22 18 17 18 18 12 8 8 14 19 18 15 14 18 20 20 19 15 14 14 15 17 19 20 21 22 21 16
23 27 31 35 39 42 41 39 34 30 32 34 31 26 25 24 22 19 17 14 13 10 9 11 17 20 19 18 22 26 23 19 15 12 12 13 15 19 22 20 19 19 16
24 27 32 35 37 39 40 40 38 34 32 34 32 26 24 25 25 22 21 13 3 6 8 9 15 20 21 19 21 24 23 20 18 18 19 19 19 22 24 22 20 17 16
25 28 32 35 36 37 38 39 39 36 34 35 34 28 24 23 22 20 20 12 5 4 5 7 11 17 21 21 20 19 18 18 18 18 22 24 24 25 24 21 18 16 17
26 29 32 33 35 37 38 38 39 38 35 35 34 29 24 22 20 17 17 14 7 5 6 5 7 15 20 22 21 20 19 17 16 17 21 26 26 26 25 22 19 18 21
26 29 32 35 37 38 38 38 39 39 37 35 32 28 26 23 21 18 15 12 10 7 4 2 5 13 19 21 22 21 20 18 17 18 21 25 27 26 24 23 22 23 25
27 31 35 37 38 39 39 39 39 40 40 37 33 29 27 24 22 20 18 13 9 9 8 8 7 11 18 22 23 23 22 21 21 20 21 23 24 24 24 24 25 26 27
30 34 36 39 40 39 39 40 40 40 41 39 36 32 27 24 22 19 19 18 10 6 7 9 11 9 14 20 22 24 23 23 23 23 23 24 25 25 25 26 26 27 26
30 34 38 40 40 39 39 39 40 40 41 41 38 34 29 26 23 19 19 19 17 10 8 8 8 8 9 13 18 21 22 22 22 23 23 24 25 26 25 26 27 28 27
31 33 36 40 41 40 39 39 40 40 40 42 40 36 31 27 24 21 19 19 18 15 11 11 9 8 8 10 13 17 20 20 20 21 21 22 23 25 25 26 27 28 28
30 34 36 38 40 40 40 40 40 40 40 41 42 39 34 29 27 25 22 19 18 17 14 11 9 8 9 11 14 16 17 18 18 19 20 20 22 24 25 26 26 27 27
30 34 36 37 38 40 40 39 40 40 40 40 41 40 37 33 32 30 27 23 19 18 16 13 11 10 10 13 16 17 17 17 17 16 18 19 21 23 25 26 26 26 26
Wind_Direction
296 295 295 295 296 296 297 298 298 298 297 296 296 297 298 299 299 299 298 298 300 300 299 298 296 296 297 297 297 294 289 286 285 286 278 264 255 256 257 250 249 246 250
299 299 299 299 299 299 300 299 299 299 297 297 300 302 305 306 304 302 300 300 301 300 298 297 299 299 300 298 295 292 290 287 282 273 269 253 249 252 243 237 244 251 257
302 302 301 301 301 302 302 302 302 301 300 303 306 308 310 309 306 302 301 302 302 301 297 290 290 299 305 305 305 292 283 277 271 260 247 241 238 241 237 235 238 247 247
305 305 305 306 307 307 305 304 304 304 305 308 312 316 319 320 320 317 312 310 311 309 303 293 286 293 304 307 305 297 275 264 266 243 239 255 254 238 225 215 209 226 239
309 308 308 310 313 316 318 316 314 317 320 324 330 333 335 336 337 339 333 324 323 326 317 301 290 291 298 306 317 313 285 263 259 250 246 260 256 215 204 199 202 226 242
329 340 347 348 347 343 338 332 329 328 327 324 321 320 318 316 317 320 326 330 323 320 316 307 298 295 289 294 293 294 280 246 249 242 234 237 227 197 197 199 199 223 235
339 349 355 353 350 349 344 337 332 328 324 318 313 311 309 308 308 308 308 313 321 319 310 304 299 293 294 298 292 285 246 220 232 242 224 216 212 185 184 186 192 199 194
339 350 358 355 347 341 339 335 330 324 320 317 315 314 313 311 310 309 306 301 298 308 313 310 294 289 302 312 305 330 291 255 251 226 200 186 174 173 179 186 188 187 188
344 351 351 348 346 344 344 341 336 330 324 319 316 315 314 311 307 303 299 297 288 282 293 304 307 283 259 297 331 328 314 290 262 209 190 180 176 177 181 187 184 185 187
350 350 350 352 353 352 349 345 339 333 328 323 320 318 314 311 310 305 296 288 282 273 270 281 302 268 222 236 278 325 354 357 189 178 174 168 170 182 182 177 178 183 186
356 357 359 359 356 352 348 343 338 334 332 331 330 326 320 315 313 310 301 287 271 261 249 246 277 249 208 220 236 148 91 94 129 154 159 165 167 169 168 170 174 178 171
6 6 5 1 356 353 351 347 345 345 345 344 342 339 336 330 323 318 307 288 266 251 235 219 224 229 205 219 234 154 117 114 122 149 153 152 161 171 167 167 170 164 159
12 9 7 3 0 359 356 353 352 354 353 351 348 343 337 331 327 327 325 306 277 249 225 205 197 218 215 203 164 141 127 116 118 136 163 159 153 163 165 160 159 160 163
11 10 8 6 5 3 0 359 357 356 354 351 348 342 336 327 317 313 313 316 298 270 224 202 193 191 193 194 178 163 141 126 117 120 139 152 157 162 162 154 156 162 167
12 12 9 8 7 6 4 2 1 359 357 353 352 352 350 346 333 316 301 291 288 272 234 204 194 187 178 179 182 177 163 147 141 132 125 127 145 160 159 154 156 157 161
14 10 7 7 6 6 6 6 3 359 356 355 354 355 358 358 358 351 339 309 269 252 233 210 197 189 182 172 176 177 176 173 174 181 180 171 162 166 162 159 163 167 173
9 6 4 4 5 6 7 7 5 3 360 360 359 357 357 359 3 6 359 355 270 212 209 206 197 190 183 177 172 171 176 186 192 195 197 190 181 175 171 174 176 182 186
5 4 3 2 3 6 8 9 7 4 1 2 2 359 359 359 1 9 13 25 68 134 175 188 193 191 186 181 177 179 185 196 202 201 197 190 186 186 187 188 192 198 192
5 5 3 3 4 6 10 10 8 7 5 5 5 5 6 4 6 9 17 27 49 108 146 164 182 188 187 183 181 179 180 186 188 183 183 187 190 192 194 198 201 199 191
9 8 8 8 8 9 12 12 10 10 10 9 11 11 13 14 15 17 21 32 52 82 108 159 172 182 186 183 180 179 177 175 176 173 172 179 186 190 190 193 192 188 185
13 12 12 12 10 11 14 13 13 13 14 14 16 17 19 20 20 26 33 45 63 80 86 96 127 166 181 184 182 181 179 173 170 168 165 167 173 176 176 178 181 182 180
18 17 15 12 12 13 16 15 15 15 16 17 19 21 22 21 25 35 38 41 50 81 101 102 96 121 168 182 185 184 181 177 174 174 171 165 164 164 164 167 171 174 175
20 19 17 14 15 16 17 17 17 17 18 19 20 22 25 27 33 40 40 39 48 78 112 130 117 100 128 171 185 187 183 179 178 175 173 173 174 175 176 178 180 182 184
19 19 19 16 18 19 19 20 19 19 20 22 23 24 28 35 41 42 40 39 51 69 93 114 115 116 127 144 169 180 183 181 180 180 178 175 175 178 181 183 184 185 184
22 22 20 18 19 21 22 22 22 22 23 24 26 28 32 41 43 40 40 46 62 71 78 90 95 114 131 136 144 158 169 173 175 178 180 180 178 177 177 179 181 183 184
22 22 22 22 21 21 23 24 25 25 26 28 30 32 36 43 47 46 46 53 65 72 73 72 74 92 110 123 131 136 144 152 157 166 174 179 180 180 180 181 183 185 187
Height
5719 5710 5701 5690 5680 5670 5660 5651 5643 5636 5631 5626 5620 5615 5610 5604 5598 5593 5589 5585 5580 5575 5570 5566 5563 5559 5557 5554 5552 5550 5549 5547 5546 5547 5547 5547 5549 5551 5551 5554 5557 5558 5559
5701 5690 5680 5668 5657 5648 5639 5632 5626 5622 5618 5614 5610 5605 5600 5595 5590 5585 5580 5576 5571 5566 5562 5559 5555 5552 5549 5547 5545 5543 5542 5541 5541 5542 5543 5544 5545 5546 5548 5550 5551 5553 5554
5684 5672 5660 5649 5638 5631 5625 5621 5617 5613 5610 5605 5602 5597 5592 5586 5581 5576 5572 5566 5561 5556 5552 5550 5548 5546 5543 5540 5538 5536 5535 5535 5536 5538 5538 5539 5541 5544 5545 5547 5549 5551 5552
5667 5655 5644 5635 5628 5622 5617 5614 5611 5608 5603 5599 5594 5588 5583 5578 5573 5569 5564 5559 5554 5549 5546 5543 5541 5540 5538 5536 5534 5532 5530 5530 5531 5532 5533 5535 5537 5539 5541 5544 5547 5550 5551
5653 5641 5631 5625 5620 5616 5613 5610 5606 5602 5597 5593 5589 5584 5579 5574 5570 5565 5560 5555 5550 5545 5542 5539 5537 5536 5534 5532 5531 5528 5526 5526 5526 5527 5528 5530 5531 5534 5538 5542 5546 5549 5550
5645 5635 5627 5623 5619 5615 5611 5607 5602 5598 5593 5588 5584 5579 5574 5570 5565 5561 5557 5552 5547 5543 5540 5537 5535 5533 5532 5530 5528 5524 5522 5521 5522 5523 5524 5526 5528 5531 5536 5540 5545 5549 5550
5645 5637 5631 5625 5620 5615 5610 5605 5599 5593 5587 5583 5578 5573 5568 5563 5559 5555 5552 5548 5544 5540 5537 5535 5533 5531 5530 5527 5524 5521 5519 5518 5520 5521 5523 5525 5527 5530 5535 5540 5544 5548 5550
5644 5638 5631 5626 5621 5615 5609 5602 5595 5589 5583 5577 5572 5566 5561 5556 5552 5548 5545 5542 5540 5537 5534 5531 5529 5528 5527 5524 5521 5520 5518 5517 5517 5519 5521 5524 5527 5531 5535 5539 5543 5546 5550
5644 5639 5632 5626 5620 5613 5606 5599 5591 5584 5578 5571 5565 5559 5554 5549 5545 5541 5538 5536 5534 5532 5530 5527 5525 5524 5524 5522 5520 5518 5516 5515 5515 5517 5520 5524 5528 5531 5535 5539 5542 5547 5551
5645 5639 5632 5625 5618 5611 5603 5595 5587 5579 5572 5565 5559 5553 5548 5542 5538 5534 5531 5528 5527 5526 5524 5523 5522 5521 5521 5521 5519 5518 5516 5513 5512 5515 5520 5524 5527 5531 5533 5537 5542 5547 5551
5644 5638 5630 5623 5615 5608 5600 5592 5582 5573 5565 5558 5551 5544 5539 5535 5531 5527 5523 5521 5519 5519 5518 5518 5519 5518 5518 5518 5518 5519 5517 5515 5516 5518 5522 5526 5529 5532 5534 5538 5543 5548 5552
5643 5636 5629 5622 5614 5606 5598 5587 5577 5568 5560 5552 5545 5539 5534 5529 5525 5521 5517 5514 5512 5512 5512 5513 5515 5515 5515 5516 5517 5519 5518 5518 5518 5521 5525 5528 5531 5534 5537 5541 5545 5550 5554
5642 5635 5628 5621 5613 5605 5595 5584 5573 5565 5557 5550 5543 5537 5531 5525 5520 5516 5512 5509 5506 5506 5506 5508 5510 5512 5512 5514 5516 5518 5520 5520 5521 5524 5527 5530 5533 5536 5540 5543 5547 5552 5557
5641 5635 5628 5621 5612 5603 5593 5582 5571 5563 5555 5548 5541 5533 5527 5521 5516 5511 5507 5504 5502 5501 5501 5503 5506 5508 5510 5511 5515 5518 5521 5522 5524 5527 5529 5532 5535 5539 5542 5546 5551 5556 5561
5642 5635 5628 5620 5611 5601 5592 5581 5571 5562 5554 5546 5538 5531 5524 5517 5511 5505 5501 5497 5497 5497 5497 5498 5501 5504 5508 5510 5512 5517 5521 5524 5526 5529 5532 5535 5538 5542 5545 5549 5553 5558 5563
5642 5635 5628 5619 5610 5601 5591 5581 5571 5562 5553 5544 5536 5528 5521 5514 5507 5501 5495 5490 5490 5492 5493 5495 5497 5500 5504 5507 5511 5515 5520 5524 5527 5530 5533 5536 5540 5544 5547 5551 5555 5559 5563
5642 5635 5628 5619 5610 5601 5591 5581 5571 5562 5553 5543 5535 5527 5521 5514 5507 5501 5494 5486 5485 5488 5490 5492 5494 5497 5502 5505 5509 5513 5518 5522 5526 5529 5532 5536 5540 5544 5548 5552 5557 5560 5564
5643 5636 5628 5619 5611 5602 5592 5581 5570 5560 5551 5542 5534 5526 5519 5513 5507 5502 5496 5490 5487 5487 5489 5491 5493 5496 5500 5504 5508 5512 5516 5520 5522 5526 5529 5534 5539 5543 5547 5552 5556 5560 5563
5644 5637 5629 5620 5611 5602 5592 5581 5571 5561 5551 5543 5534 5526 5519 5513 5508 5503 5498 5493 5490 5489 5489 5491 5492 5495 5498 5502 5506 5511 5515 5518 5521 5523 5527 5532 5537 5541 5546 5551 5555 5558 5562
5646 5639 5630 5621 5612 5602 5593 5583 5573 5563 5553 5544 5535 5527 5520 5513 5508 5504 5499 5496 5493 5491 5491 5491 5492 5494 5497 5501 5505 5510 5514 5518 5521 5523 5526 5531 5536 5541 5546 5550 5553 5558 5562
5648 5640 5631 5622 5613 5604 5595 5585 5575 5566 5555 5545 5537 5529 5521 5515 5509 5504 5501 5497 5496 5494 5493 5493 5493 5494 5497 5501 5505 5509 5514 5518 5522 5525 5527 5531 5536 5541 5545 5550 5554 5558 5562
5650 5642 5633 5624 5615 5606 5597 5587 5578 5568 5558 5548 5539 5531 5524 5517 5511 5507 5503 5500 5497 5496 5496 5496 5496 5497 5498 5502 5506 5510 5515 5519 5523 5526 5530 5533 5538 5542 5546 5551 5555 5559 5563
5651 5643 5635 5626 5617 5608 5599 5591 5581 5571 5561 5552 5543 5535 5527 5520 5514 5510 5507 5503 5500 5498 5498 5499 5500 5501 5502 5504 5507 5511 5516 5520 5524 5527 5531 5535 5539 5544 5548 5552 5556 5560 5564
5653 5645 5638 5629 5620 5611 5602 5594 5585 5575 5566 5557 5547 5539 5531 5524 5519 5515 5511 5507 5504 5502 5502 5502 5503 5504 5504 5506 5508 5512 5516 5521 5525 5529 5533 5536 5540 5544 5548 5552 5556 5561 5565
5655 5648 5641 5633 5624 5615 5606 5598 5590 5580 5571 5562 5553 5544 5536 5530 5525 5520 5515 5511 5509 5508 5507 5507 5507 5507 5508 5509 5511 5514 5518 5523 5526 5530 5534 5538 5541 5545 5549 5553 5558 5562 5567
5658 5651 5644 5636 5628 5619 5611 5603 5595 5586 5577 5569 5560 5552 5544 5537 5532 5526 5521 5517 5515 5514 5513 5512 5511 5511 5512 5514 5516 5518 5522 5526 5529 5532 5535 5539 5543 5546 5550 5554 5558 5563 5568